Hourly Data Report for October 16, 2004

TORONTO CITY
ONTARIO

43°40'00.000" N
79°24'00.000" W
112.50 m
6158355
71508
XTO

Download Data

Hourly Data (October 2004)
Hourly Data Report for October 16, 2004
TIME
LST
Temp Definition
°C
Dew Point Definition
°C
Rel Hum Definition
%
Precip. Amount Definition
mm

Wind Dir Definition
10's deg

Wind Spd Definition
km/h
Visibility Definition
km
Stn Press Definition
kPa
Hmdx Definition


Wind Chill Definition


Weather Definition


00:00 11.3 9.0 86   LegendMM LegendMM LegendMM 97.66     LegendNANA
01:00 10.5 8.9 90   LegendMM LegendMM LegendMM 97.67     LegendNANA
02:00 10.5 8.3 86   LegendMM LegendMM LegendMM 97.67     LegendNANA
03:00 10.4 8.5 88   LegendMM LegendMM LegendMM 97.69     LegendNANA
04:00 10.8 7.0 77   LegendMM LegendMM LegendMM 97.75     LegendNANA
05:00 9.6 5.7 77   LegendMM LegendMM LegendMM 97.77     LegendNANA
06:00 9.1 5.4 78   LegendMM LegendMM LegendMM 97.81     LegendNANA
07:00 8.7 5.4 80   LegendMM LegendMM LegendMM 97.85     LegendNANA
08:00 8.9 5.5 79   LegendMM LegendMM LegendMM 97.84     LegendNANA
09:00 9.1 6.2 82   LegendMM LegendMM LegendMM 97.86     LegendNANA
10:00 9.6 6.6 82   LegendMM LegendMM LegendMM 97.87     LegendNANA
11:00 10.3 6.9 79   LegendMM LegendMM LegendMM 97.84     LegendNANA
12:00 10.5 6.9 78   LegendMM LegendMM LegendMM 97.87     LegendNANA
13:00 9.4 7.5 88   LegendMM LegendMM LegendMM 97.90     LegendNANA
14:00 10.9 7.1 77   LegendMM LegendMM LegendMM 97.89     LegendNANA
15:00 11.5 5.9 68   LegendMM LegendMM LegendMM 97.93     LegendNANA
16:00 9.9 4.6 70   LegendMM LegendMM LegendMM 98.02     LegendNANA
17:00 9.8 4.7 71   LegendMM LegendMM LegendMM 98.11     LegendNANA
18:00 8.4 4.5 76   LegendMM LegendMM LegendMM 98.19     LegendNANA
19:00 8.2 4.5 77   LegendMM LegendMM LegendMM 98.20     LegendNANA
20:00 8.3 4.7 78   LegendMM LegendMM LegendMM 98.24     LegendNANA
21:00 7.1 2.9 75   LegendMM LegendMM LegendMM 98.30     LegendNANA
22:00 7.0 3.0 76   LegendMM LegendMM LegendMM 98.34     LegendNANA
23:00 7.0 2.4 72   LegendMM LegendMM LegendMM 98.35     LegendNANA

Notes on Data Quality.

Legend

  • E = Estimated
  • M = Missing
  • NA = Not Available*
  • [empty] = Indicates an unobserved value
Date modified: